Starlink 30957

operational
NORAD ID: 58453 Int'l Des: 2023-183 Owner: SPXS Country: US Constellation: starlink
LEOCIRCULAR

Über Starlink 30957

Beschreibung wird geladen...

Live-Position

3D-Globus wird geladen...

Nächste Überflüge

Höhenverlauf

Altitude vs Time

uPlot chart will show altitude changes over time

Zweizeiliger Elementsatz

1 58453U 23183S 25303.67641662 .00000630 00000-0 61666-4 0 9991
2 58453 43.0049 30.0483 0001239 272.8567 87.2133 15.02541036107152
Epoch: 30. Okt. 2025 • Age: 23 hours

Aktueller Status

Höhe 562.7 km
Geschwindigkeit 7.59 km/s
Subsatellitenpunkt 41.65°N, 167.35°W
Startdatum 28. Nov. 2023
Alter 1.9 years
Typ internet

Technische Details

Klassifizierung Payload
Masse 730.00 kg
Trockenmasse 700.00 kg
Gesamtmasse 730.00 kg
Länge 0.30 m
Durchmesser 4.10 m
Spannweite 29.00 m
Form Box + pan
Hersteller SPXS
Bus-Typ Starlink V2M
Phasenstatus In Orbit
Besitzer/Staat SPXS/US

Große Konstellationen

Loading constellations...